Location: Unnamed
(48.2382°N, 16.3826°E)
Time: 05:46:09
(UTC+02:00)

Falcon 9 debris - Pass Details

Date: 15 August 2020
Orbit: 426 x 434 km, 53.0° (Epoch: 21 September)

Event Time Altitude Azimuth Distance (km) Brightness Sun altitude
Rises 23:20:35 0° 294° (WNW) 2,413 ? -24.3°
Reaches altitude 10° 23:22:45 10° 299° (WNW) 1,544 ? -24.5°
Enters shadow 23:25:17 39° 331° (NNW) 673 ? -24.7°
